"2010-01-25 00:00:00",1621719,10.11,326.4,5.018,0.687,5.583,100.0042,-0.689,0.668,26.85,0,109.6,13.55,0.06,288.4
"2010-01-25 00:00:30",1621720,10.05,318.6,3.408,0.625,5.428,100.0088,-0.677,0.682,27.11,0,109.6,13.55,0.07,280.6
"2010-01-25 00:01:00",1621721,10.12,321.3,4.538,0.612,5.382,100.0136,-0.665,0.668,27.62,0,109.6,13.56,0.08,283.3
"2010-01-25 00:01:30",1621722,9.55,322.1,4.03,0.61,5.369,100.0113,-0.671,0.67,27.66,0,109.6,13.56,0.08,284.1
"2010-01-25 00:02:00",1621723,9.84,325.1,4.296,0.591,5.446,100.0006,-0.698,0.657,27.5,0,109.6,13.56,0.05,287.1
"2010-01-25 00:02:30",1621724,10.39,317.8,5.496,0.599,5.441,99.99292,-0.718,0.649,27.43,0,109.6,13.56,0.03,279.8
"2010-01-25 00:03:00",1621725,10.35,312.1,4.188,0.57,5.251,99.99349,-0.716,0.659,27.76,0,109.6,13.56,0.03,274.1
"2010-01-25 00:03:30",1621726,10,318.4,4.427,0.645,5.315,99.99575,-0.71,0.629,27.86,0,109.6,13.56,0.04,280.4
"2010-01-25 00:04:00",1621727,10.69,313.1,4.295,0.66,5.282,99.99886,-0.702,0.627,27.88,0,109.5,13.56,0.05,275.1
"2010-01-25 00:04:30",1621728,12.07,315.6,4.277,0.539,5.25,99.99915,-0.702,0.623,28.16,0,109.5,13.56,0.05,277.6
"2010-01-25 00:05:00",1621729,12.04,317.5,4.938,0.754,5.365,99.9983,-0.704,0.606,28.41,0,109.5,13.56,0.05,279.5
"2010-01-25 00:05:30",1621730,11.82,317.4,5.25,0.672,5.484,99.98867,-0.728,0.605,28.54,0,109.5,13.57,0.02,279.4
"2010-01-25 00:06:00",1621731,12.41,318.8,4.315,0.898,5.641,99.98103,-0.748,0.597,28.48,0,109.5,13.57,0.00,280.8
"2010-01-25 00:06:30",1621732,11.57,314.6,4.029,0.755,5.875,99.96914,-0.778,0.58,28.34,0,109.5,13.57,-0.03,276.6
"2010-01-25 00:07:00",1621733,12.4,314.7,4.859,0.679,5.667,99.96603,-0.786,0.56,28.34,0,109.6,13.57,-0.04,276.7
"2010-01-25 00:07:30",1621734,12.37,320.8,5.009,0.736,5.738,99.96603,-0.786,0.594,28.48,0,109.5,13.57,-0.04,282.8
"2010-01-25 00:08:00",1621735,12.03,318.2,4.775,0.542,5.967,99.96603,-0.786,0.553,28.5,0,109.5,13.57,-0.04,280.2
"2010-01-25 00:08:30",1621736,11.63,318.4,4.874,0.955,6.063,99.96037,-0.801,0.538,28.41,0,109.5,13.57,-0.05,280.4
"2010-01-25 00:09:00",1621737,12.12,317.7,5.39,0.888,5.795,99.94876,-0.83,0.541,28.52,0,109.5,13.57,-0.08,279.7
"2010-01-25 00:09:30",1621738,11.66,322.1,4.871,0.683,6.042,99.94141,-0.849,0.528,28.46,0,109.5,13.57,-0.10,284.1
"2010-01-25 00:10:00",1621739,12.19,319.7,4.456,0.69,5.969,99.93235,-0.872,0.511,28.46,0,109.5,13.57,-0.12,281.7
"2010-01-25 00:10:30",1621740,12.2,317.2,4.303,0.691,5.98,99.93206,-0.873,0.498,28.66,0,109.5,13.57,-0.12,279.2
"2010-01-25 00:11:00",1621741,11.63,317.9,5.09,0.492,5.885,99.93206,-0.873,0.487,28.8,0,109.5,13.57,-0.12,279.9
"2010-01-25 00:11:30",1621742,11.54,321.9,4.195,0.556,5.911,99.93206,-0.873,0.495,28.92,0,109.5,13.57,-0.12,283.9
"2010-01-25 00:12:00",1621743,11.35,324.9,4.373,0.768,5.91,99.93093,-0.876,0.478,29.12,0,109.5,13.57,-0.13,286.9
"2010-01-25 00:12:30",1621744,12.62,324.7,4.136,0.806,5.987,99.92272,-0.897,0.467,29.11,0,109.5,13.57,-0.15,286.7
"2010-01-25 00:13:00",1621745,12.39,324,4.808,0.539,6.035,99.90885,-0.932,0.45,29.15,0,109.5,13.57,-0.18,286.0
"2010-01-25 00:13:30",1621746,12.12,318.8,4.604,0.729,6.079,99.90545,-0.941,0.457,29.14,0,109.5,13.57,-0.19,280.8
"2010-01-25 00:14:00",1621747,11.87,323.1,3.818,0.738,5.895,99.89979,-0.955,0.441,29.02,0,109.5,13.57,-0.21,285.1
"2010-01-25 00:14:30",1621748,12.92,323.3,3.796,0.743,5.947,99.89809,-0.959,0.423,29.15,0,109.5,13.57,-0.21,285.3
"2010-01-25 00:15:00",1621749,12.95,326,4.167,0.674,6.039,99.89809,-0.959,0.42,29.55,0,109.6,13.57,-0.21,288.0
"2010-01-25 00:15:30",1621750,12.09,327,4.061,0.859,6.061,99.89809,-0.959,0.423,29.65,0,109.5,13.57,-0.21,289.0
"2010-01-25 00:16:00",1621751,11.47,327.2,4.172,0.708,6.135,99.89781,-0.96,0.41,29.66,0,109.5,13.57,-0.21,289.2
"2010-01-25 00:16:30",1621752,11.98,324.8,4.345,0.71,6.187,99.88761,-0.986,0.383,29.6,0,109.5,13.57,-0.24,286.8
"2010-01-25 00:17:00",1621753,12.64,326.7,4.564,0.518,6.155,99.8712,-1.028,0.38,29.56,0,109.5,13.57,-0.28,288.7
"2010-01-25 00:17:30",1621754,12.59,324.8,5.194,0.879,6.046,99.86808,-1.036,0.387,29.5,0,109.5,13.57,-0.29,286.8
"2010-01-25 00:18:00",1621755,12.62,322.8,5.987,0.737,6.167,99.87092,-1.029,0.35,29.55,0,109.5,13.58,-0.28,284.8
"2010-01-25 00:18:30",1621756,11.12,325,3.841,0.752,6.424,99.8777,-1.011,0.369,29.58,0,109.5,13.58,-0.26,287.0
"2010-01-25 00:19:00",1621757,11.63,325.7,4.262,0.751,6.216,99.87997,-1.006,0.344,29.35,0,109.5,13.58,-0.26,287.7
"2010-01-25 00:19:30",1621758,11.83,324.3,3.958,0.79,6.013,99.88052,-1.004,0.333,29.42,0,109.5,13.58,-0.26,286.3
"2010-01-25 00:20:00",1621759,12.99,323.4,4.782,0.688,6.048,99.87514,-1.018,0.318,29.5,0,109.5,13.58,-0.27,285.4
"2010-01-25 00:20:30",1621760,13.97,324.8,3.401,0.71,6.235,99.87231,-1.025,0.302,29.55,0,109.5,13.58,-0.28,286.8
"2010-01-25 00:21:00",1621761,14.26,324.2,4.438,0.56,6.132,99.86976,-1.032,0.3,29.53,0,109.5,13.59,-0.28,286.2
"2010-01-25 00:21:30",1621762,13.51,326.2,4.786,0.635,6.387,99.86806,-1.036,0.292,29.55,0,109.5,13.59,-0.29,288.2
"2010-01-25 00:22:00",1621763,14.2,326,4.099,0.948,6.487,99.8641,-1.046,0.284,29.51,0,109.5,13.59,-0.30,288.0
"2010-01-25 00:22:30",1621764,15.16,325.4,3.37,0.753,6.531,99.85673,-1.065,0.29,29.33,0,109.5,13.59,-0.32,287.4
"2010-01-25 00:23:00",1621765,14.6,327.8,4.808,0.473,6.541,99.85587,-1.067,0.291,29.31,0,109.5,13.59,-0.32,289.8
"2010-01-25 00:23:30",1621766,13.47,324.1,5.437,0.579,6.636,99.85645,-1.066,0.281,29.32,0,109.5,13.59,-0.32,286.1
"2010-01-25 00:24:00",1621767,12.46,328.4,4.993,1.059,6.53,99.85729,-1.063,0.267,29.3,0,109.5,13.59,-0.32,290.4
"2010-01-25 00:24:30",1621768,12.25,330.6,3.917,1.552,6.495,99.86097,-1.054,0.266,29.25,0,109.5,13.59,-0.31,292.6
"2010-01-25 00:25:00",1621769,14.32,326.9,4.724,0.582,6.477,99.86182,-1.052,0.254,29.26,0,109.5,13.59,-0.30,288.9
"2010-01-25 00:25:30",1621770,14.27,326.6,4.32,0.669,6.464,99.86295,-1.049,0.268,29.27,0,109.5,13.59,-0.30,288.6
"2010-01-25 00:26:00",1621771,14.44,322.4,3.996,0.84,6.546,99.86324,-1.048,0.239,29.29,0,109.5,13.59,-0.30,284.4
"2010-01-25 00:26:30",1621772,13.02,324.2,3.924,0.932,6.534,99.86351,-1.048,0.243,29.31,0,109.5,13.59,-0.30,286.2
"2010-01-25 00:27:00",1621773,13.39,319.8,4.204,0.932,6.476,99.86408,-1.046,0.248,29.38,0,109.5,13.59,-0.30,281.8
"2010-01-25 00:27:30",1621774,14.06,320.8,5.117,0.657,6.48,99.86408,-1.046,0.25,29.29,0,109.5,13.59,-0.30,282.8
"2010-01-25 00:28:00",1621775,13.79,317,4.633,0.983,6.426,99.86408,-1.046,0.243,29.17,0,109.5,13.59,-0.30,279.0
"2010-01-25 00:28:30",1621776,13.94,321.9,3.719,0.852,6.45,99.86408,-1.046,0.25,29.13,0,109.5,13.59,-0.30,283.9
"2010-01-25 00:29:00",1621777,13.52,320.8,4.228,0.749,6.251,99.86408,-1.046,0.249,29.63,0,109.6,13.59,-0.30,282.8
"2010-01-25 00:29:30",1621778,14.59,321.9,4.22,0.929,6.087,99.86408,-1.046,0.252,30.03,0,109.5,13.59,-0.30,283.9
"2010-01-25 00:30:00",1621779,12.74,322.7,5.689,0.819,6.732,99.86408,-1.046,0.251,29.83,0,109.5,13.59,-0.30,284.7
"2010-01-25 00:30:30",1621780,13.54,320,4.811,0.962,6.579,99.86408,-1.046,0.243,29.41,0,109.5,13.59,-0.30,282.0
"2010-01-25 00:31:00",1621781,13.83,317.9,4.978,0.877,6.304,99.86408,-1.046,0.243,29.26,0,109.5,13.59,-0.30,279.9
"2010-01-25 00:31:30",1621782,13.26,320.3,4.462,0.629,6.331,99.86408,-1.046,0.258,29.28,0,109.5,13.59,-0.30,282.3
"2010-01-25 00:32:00",1621783,13.39,321.4,4.283,0.644,6.463,99.86351,-1.048,0.249,29.34,0,109.5,13.59,-0.30,283.4
"2010-01-25 00:32:30",1621784,15.1,320.7,3.854,0.632,6.438,99.86295,-1.049,0.236,29.2,0,109.5,13.59,-0.30,282.7
"2010-01-25 00:33:00",1621785,14.6,321.8,5.636,0.716,6.546,99.86209,-1.051,0.257,29.25,0,109.5,13.59,-0.30,283.8
"2010-01-25 00:33:30",1621786,13.43,322.2,3.636,0.903,6.412,99.86124,-1.053,0.256,29.17,0,109.5,13.59,-0.30,284.2
"2010-01-25 00:34:00",1621787,12.62,320.6,4.692,0.833,6.547,99.86096,-1.054,0.249,29.02,0,109.5,13.59,-0.31,282.6
"2010-01-25 00:34:30",1621788,12.24,317.4,4.49,0.918,6.658,99.86295,-1.049,0.236,28.89,0,109.5,13.59,-0.30,279.4
"2010-01-25 00:35:00",1621789,13.25,315.6,4.236,0.532,6.323,99.86295,-1.049,0.241,28.79,0,109.5,13.6,-0.30,277.6
"2010-01-25 00:35:30",1621790,13.05,318.9,3.929,0.728,6.221,99.86351,-1.048,0.266,28.84,0,109.5,13.6,-0.30,280.9
"2010-01-25 00:36:00",1621791,12.58,319.9,4.462,0.87,6.34,99.86209,-1.051,0.251,28.93,0,109.5,13.6,-0.30,281.9
"2010-01-25 00:36:30",1621792,12.96,322.8,3.984,0.872,6.279,99.86266,-1.05,0.24,28.76,0,109.5,13.6,-0.30,284.8
"2010-01-25 00:37:00",1621793,14.04,320.9,3.984,0.71,6.146,99.86436,-1.045,0.249,29.12,0,109.5,13.6,-0.30,282.9
"2010-01-25 00:37:30",1621794,14.04,319.3,3.777,0.741,6.218,99.86379,-1.047,0.264,29.29,0,109.5,13.6,-0.30,281.3
"2010-01-25 00:38:00",1621795,13.28,320.9,4.312,0.714,6.376,99.86182,-1.052,0.259,29.24,0,109.5,13.6,-0.30,282.9
"2010-01-25 00:38:30",1621796,13.28,319.6,3.523,0.775,6.452,99.86324,-1.048,0.263,29.15,0,109.5,13.6,-0.30,281.6
"2010-01-25 00:39:00",1621797,13.68,324.2,4.593,0.786,6.435,99.86323,-1.048,0.247,29.1,0,109.6,13.6,-0.30,286.2
"2010-01-25 00:39:30",1621798,14.21,321,4.188,0.701,6.356,99.86238,-1.05,0.268,29.07,0,109.5,13.6,-0.30,283.0
"2010-01-25 00:40:00",1621799,13.56,319.7,4.473,0.659,6.358,99.86124,-1.053,0.258,29.07,0,109.5,13.6,-0.30,281.7
"2010-01-25 00:40:30",1621800,13.71,317.5,3.553,0.644,6.355,99.85927,-1.058,0.255,29.12,0,109.5,13.6,-0.31,279.5
"2010-01-25 00:41:00",1621801,13.65,318.5,4.79,0.927,6.208,99.85671,-1.065,0.252,29.37,0,109.6,13.6,-0.32,280.5
"2010-01-25 00:41:30",1621802,13.47,317,3.699,0.606,6.397,99.85303,-1.074,0.269,29.31,0,109.5,13.6,-0.33,279.0
"2010-01-25 00:42:00",1621803,12.76,314.1,4.035,0.686,6.268,99.85076,-1.08,0.257,29.11,0,109.5,13.6,-0.33,276.1
"2010-01-25 00:42:30",1621804,14.23,313.1,4.678,0.704,6.156,99.85161,-1.078,0.259,29.28,0,109.5,13.6,-0.33,275.1
"2010-01-25 00:43:00",1621805,13.87,313.6,3.691,0.678,6.08,99.8519,-1.077,0.248,29.27,0,109.5,13.6,-0.33,275.6
"2010-01-25 00:43:30",1621806,12.45,314.8,4.255,0.787,6.378,99.84708,-1.089,0.254,29.03,0,109.5,13.6,-0.34,276.8
"2010-01-25 00:44:00",1621807,13.06,317.3,4.685,0.6,6.112,99.85133,-1.079,0.249,29.03,0,109.5,13.6,-0.33,279.3
"2010-01-25 00:44:30",1621808,13.81,317.9,3.925,0.876,6.093,99.85217,-1.076,0.239,29.19,0,109.5,13.6,-0.33,279.9
"2010-01-25 00:45:00",1621809,14.22,318.7,4.769,0.634,6.096,99.85132,-1.079,0.241,29.43,0,109.5,13.6,-0.33,280.7
"2010-01-25 00:45:30",1621810,13.58,321.7,4.385,0.568,6.209,99.84736,-1.089,0.264,29.6,0,109.5,13.6,-0.34,283.7
"2010-01-25 00:46:00",1621811,13.95,320.9,4.345,0.741,6.286,99.84819,-1.087,0.268,29.7,0,109.5,13.6,-0.34,282.9
"2010-01-25 00:46:30",1621812,13.69,320,3.811,0.574,6.463,99.84876,-1.085,0.25,29.44,0,109.5,13.6,-0.34,282.0
"2010-01-25 00:47:00",1621813,13.92,318.9,4.608,0.58,6.351,99.85046,-1.081,0.246,29.44,0,109.5,13.6,-0.33,280.9
"2010-01-25 00:47:30",1621814,13.92,318,4.268,0.565,6.361,99.85244,-1.076,0.245,29.46,0,109.5,13.6,-0.33,280.0
"2010-01-25 00:48:00",1621815,13.76,318.5,4.478,0.548,6.486,99.85244,-1.076,0.233,29.37,0,109.5,13.6,-0.33,280.5
"2010-01-25 00:48:30",1621816,13.69,317.9,3.995,0.571,6.542,99.85357,-1.073,0.239,29.19,0,109.5,13.6,-0.32,279.9
"2010-01-25 00:49:00",1621817,14.14,315.6,4.395,0.596,6.335,99.85471,-1.07,0.244,29.24,0,109.5,13.6,-0.32,277.6
"2010-01-25 00:49:30",1621818,14.33,317.3,4.022,0.591,6.252,99.85442,-1.071,0.236,29.41,0,109.5,13.6,-0.32,279.3
"2010-01-25 00:50:00",1621819,14.35,315.9,4.227,0.715,6.296,99.85526,-1.069,0.214,29.38,0,109.5,13.6,-0.32,277.9
"2010-01-25 00:50:30",1621820,14.06,317.6,3.931,0.683,6.472,99.85611,-1.066,0.212,29.41,0,109.5,13.6,-0.32,279.6
"2010-01-25 00:51:00",1621821,13.92,319.5,2.09,0.785,6.046,99.85668,-1.065,0.223,29.39,0,109.5,13.6,-0.32,281.5
"2010-01-25 00:51:30",1621822,14.16,319.4,3.683,0.839,6.282,99.85611,-1.066,0.23,29.29,0,109.5,13.61,-0.32,281.4
"2010-01-25 00:52:00",1621823,13.99,320.2,4.066,0.735,6.334,99.85583,-1.067,0.212,29.18,0,109.5,13.61,-0.32,282.2
"2010-01-25 00:52:30",1621824,13.8,318.6,3.704,0.715,6.468,99.85696,-1.064,0.205,29.22,0,109.5,13.61,-0.32,280.6
"2010-01-25 00:53:00",1621825,13.35,321,3.845,0.74,6.483,99.8564,-1.066,0.192,29.1,0,109.5,13.61,-0.32,283.0
"2010-01-25 00:53:30",1621826,12.71,319.6,3.747,0.959,6.499,99.85781,-1.062,0.226,28.93,0,109.5,13.61,-0.31,281.6
"2010-01-25 00:54:00",1621827,13.83,319.6,4.146,0.697,6.222,99.85696,-1.064,0.218,29,0,109.5,13.61,-0.32,281.6
"2010-01-25 00:54:30",1621828,13.6,318.9,3.576,0.716,6.338,99.85555,-1.068,0.209,29.14,0,109.5,13.61,-0.32,280.9
"2010-01-25 00:55:00",1621829,13.04,320.2,4.255,0.89,6.263,99.85555,-1.068,0.203,29.12,0,109.5,13.61,-0.32,282.2
"2010-01-25 00:55:30",1621830,12.88,320.8,5.056,0.698,6.435,99.85555,-1.068,0.22,29.13,0,109.5,13.61,-0.32,282.8
"2010-01-25 00:56:00",1621831,12.27,324.5,4.449,1.048,6.41,99.85356,-1.073,0.202,28.96,0,109.5,13.61,-0.32,286.5
"2010-01-25 00:56:30",1621832,13.33,319,4.459,0.548,6.501,99.85611,-1.066,0.197,28.76,0,109.5,13.61,-0.32,281.0
"2010-01-25 00:57:00",1621833,13.49,318.3,3.761,0.675,6.239,99.85838,-1.061,0.198,28.76,0,109.5,13.61,-0.31,280.3
"2010-01-25 00:57:30",1621834,13.56,318.7,3.115,0.775,6.056,99.86008,-1.056,0.195,28.93,0,109.5,13.61,-0.31,280.7
"2010-01-25 00:58:00",1621835,14.19,317,4.305,0.705,6.247,99.85922,-1.058,0.192,28.91,0,109.5,13.61,-0.31,279.0
"2010-01-25 00:58:30",1621836,14.22,319.1,4.157,0.647,6.41,99.86263,-1.05,0.201,28.9,0,109.5,13.61,-0.30,281.1
"2010-01-25 00:59:00",1621837,14.88,315.7,3.709,0.621,6.275,99.86121,-1.053,0.207,28.85,0,109.5,13.61,-0.31,277.7
"2010-01-25 00:59:30",1621838,14.94,314,4.337,0.788,6.505,99.86148,-1.053,0.217,28.72,0,109.5,13.61,-0.30,276.0
"2010-01-25 01:00:00",1621839,14.01,314.7,3.876,0.781,6.569,99.86375,-1.047,0.193,28.57,0,109.5,13.61,-0.30,276.7
"2010-01-25 01:00:30",1621840,13,317.6,3.675,1.12,6.463,99.8629,-1.049,0.205,28.45,0,109.5,13.62,-0.30,279.6
"2010-01-25 01:01:00",1621841,13.83,319.1,3.836,0.755,6.167,99.86403,-1.046,0.189,28.69,0,109.5,13.61,-0.30,281.1
"2010-01-25 01:01:30",1621842,13.52,316.4,3.493,0.749,6.191,99.86318,-1.048,0.222,28.85,0,109.5,13.61,-0.30,278.4
"2010-01-25 01:02:00",1621843,13.61,317.4,3.853,0.544,6.273,99.86403,-1.046,0.212,28.91,0,109.5,13.6,-0.30,279.4
"2010-01-25 01:02:30",1621844,13.78,317.4,3.974,0.765,6.447,99.86318,-1.048,0.217,28.88,0,109.5,13.6,-0.30,279.4
"2010-01-25 01:03:00",1621845,13.2,316.9,3.085,0.752,6.202,99.86403,-1.046,0.213,28.87,0,109.5,13.61,-0.30,278.9
"2010-01-25 01:03:30",1621846,13.23,316.2,3.817,0.77,6.34,99.86403,-1.046,0.238,28.85,0,109.5,13.6,-0.30,278.2
"2010-01-25 01:04:00",1621847,13.7,314.8,4.307,0.866,6.387,99.86375,-1.047,0.222,28.76,0,109.5,13.61,-0.30,276.8
"2010-01-25 01:04:30",1621848,13.39,313.1,3.115,0.631,6.385,99.86403,-1.046,0.227,28.72,0,109.5,13.61,-0.30,275.1
"2010-01-25 01:05:00",1621849,13.65,312.5,3.984,0.507,6.289,99.86403,-1.046,0.228,28.68,0,109.5,13.61,-0.30,274.5
"2010-01-25 01:05:30",1621850,12.56,310.3,3.901,0.691,6.1,99.86375,-1.047,0.224,28.71,0,109.5,13.61,-0.30,272.3
"2010-01-25 01:06:00",1621851,12.74,313.4,4.243,0.709,6.029,99.86403,-1.046,0.228,28.76,0,109.5,13.61,-0.30,275.4
"2010-01-25 01:06:30",1621852,13.21,314.6,3.867,0.793,6.145,99.86403,-1.046,0.226,28.84,0,109.5,13.62,-0.30,276.6
"2010-01-25 01:07:00",1621853,13.21,313.2,4.657,0.531,6.06,99.86403,-1.046,0.215,28.84,0,109.5,13.62,-0.30,275.2
"2010-01-25 01:07:30",1621854,12.95,311.7,5.249,0.713,5.964,99.86403,-1.046,0.247,28.82,0,109.5,13.62,-0.30,273.7
"2010-01-25 01:08:00",1621855,13.03,312.5,3.961,0.809,6.036,99.86403,-1.046,0.226,28.93,0,109.5,13.62,-0.30,274.5
"2010-01-25 01:08:30",1621856,12.59,316.1,3.104,0.845,5.854,99.86318,-1.048,0.228,28.93,0,109.5,13.62,-0.30,278.1
"2010-01-25 01:09:00",1621857,12.03,315.7,4.27,0.786,5.855,99.86148,-1.053,0.21,28.99,0,109.5,13.62,-0.30,277.7
"2010-01-25 01:09:30",1621858,12.13,311,3.373,0.803,5.707,99.85978,-1.057,0.223,29.08,0,109.5,13.62,-0.31,273.0
"2010-01-25 01:10:00",1621859,12.27,314.9,4.523,0.672,5.742,99.85214,-1.077,0.22,29.11,0,109.5,13.62,-0.33,276.9
"2010-01-25 01:10:30",1621860,12.39,314.9,3.627,0.696,5.882,99.84506,-1.095,0.21,29.11,0,109.5,13.62,-0.35,276.9
"2010-01-25 01:11:00",1621861,11.89,316.2,2.241,0.918,5.384,99.84024,-1.107,0.198,29.24,0,109.5,13.62,-0.36,278.2
"2010-01-25 01:11:30",1621862,12.94,316.2,5.275,0.639,5.835,99.83571,-1.118,0.209,29.29,0,109.4,13.62,-0.37,278.2
"2010-01-25 01:12:00",1621863,12.86,315.2,3.967,0.838,5.613,99.83118,-1.13,0.211,29.29,0,109.5,13.62,-0.38,277.2
"2010-01-25 01:12:30",1621864,13.05,316,3.308,0.741,5.938,99.83005,-1.133,0.198,29.22,0,109.5,13.62,-0.38,278.0
"2010-01-25 01:13:00",1621865,12.47,318.1,4.541,0.593,5.903,99.83005,-1.133,0.198,29.18,0,109.5,13.62,-0.38,280.1
"2010-01-25 01:13:30",1621866,12.37,317.7,4.293,0.742,5.878,99.83005,-1.133,0.204,29.23,0,109.5,13.62,-0.38,279.7
"2010-01-25 01:14:00",1621867,12.57,320,4.55,0.771,5.977,99.83005,-1.133,0.194,29.26,0,109.5,13.62,-0.38,282.0
"2010-01-25 01:14:30",1621868,12.46,319,4.546,0.766,6.139,99.83005,-1.133,0.178,29.23,0,109.5,13.62,-0.38,281.0
"2010-01-25 01:15:00",1621869,12.3,320,3.794,0.675,5.941,99.83005,-1.133,0.16,29.23,0,109.5,13.62,-0.38,282.0
"2010-01-25 01:15:30",1621870,12.19,318.4,3.926,0.72,5.85,99.83005,-1.133,0.18,29.3,0,109.5,13.62,-0.38,280.4
"2010-01-25 01:16:00",1621871,12.97,322,3.795,0.732,6.044,99.82976,-1.134,0.166,29.36,0,109.5,13.62,-0.39,284.0
"2010-01-25 01:16:30",1621872,13.53,320,4.118,0.654,5.931,99.82722,-1.14,0.171,29.24,0,109.5,13.62,-0.39,282.0
"2010-01-25 01:17:00",1621873,14.21,323.3,3.599,0.791,5.953,99.81503,-1.171,0.159,29.46,0,109.5,13.62,-0.42,285.3
"2010-01-25 01:17:30",1621874,14.35,321.3,2.913,0.759,5.931,99.8037,-1.2,0.16,29.44,0,109.5,13.62,-0.45,283.3
"2010-01-25 01:18:00",1621875,14.19,321.1,3.56,0.797,6.174,99.80058,-1.208,0.155,29.29,0,109.5,13.62,-0.46,283.1
"2010-01-25 01:18:30",1621876,13.59,323.3,2.854,0.767,6.226,99.79775,-1.215,0.153,29.14,0,109.5,13.62,-0.47,285.3
"2010-01-25 01:19:00",1621877,13.61,325.8,4.341,0.732,6.4,99.79634,-1.219,0.142,29.22,0,109.5,13.62,-0.47,287.8
"2010-01-25 01:19:30",1621878,13.29,325.9,3.654,0.877,6.388,99.79605,-1.219,0.154,29.19,0,109.4,13.62,-0.47,287.9
"2010-01-25 01:20:00",1621879,13.76,322.2,4.013,0.948,6.231,99.79605,-1.219,0.133,29.05,0,109.5,13.62,-0.47,284.2
"2010-01-25 01:20:30",1621880,13.25,323.6,3.194,0.728,6.291,99.79605,-1.219,0.13,29.32,0,109.4,13.62,-0.47,285.6
"2010-01-25 01:21:00",1621881,13.64,322.8,3.743,0.747,6.097,99.79605,-1.219,0.149,29.45,0,109.4,13.62,-0.47,284.8
"2010-01-25 01:21:30",1621882,13.5,322.6,3.187,0.758,6.326,99.79605,-1.219,0.148,29.37,0,109.4,13.62,-0.47,284.6
"2010-01-25 01:22:00",1621883,13.46,323.1,3.627,0.834,6.271,99.79605,-1.219,0.114,29.04,0,109.5,13.62,-0.47,285.1
"2010-01-25 01:22:30",1621884,13.18,323.5,2.841,0.843,6.445,99.79605,-1.219,0.115,28.89,0,109.4,13.62,-0.47,285.5
"2010-01-25 01:23:00",1621885,12.55,320.9,3.652,0.801,6.209,99.79605,-1.219,0.115,28.8,0,109.4,13.62,-0.47,282.9
"2010-01-25 01:23:30",1621886,12.15,321.7,4.474,0.69,6.385,99.79605,-1.219,0.135,28.83,0,109.4,13.62,-0.47,283.7
"2010-01-25 01:24:00",1621887,12.04,322.5,3.624,0.748,6.051,99.79605,-1.219,0.111,28.98,0,109.4,13.62,-0.47,284.5
"2010-01-25 01:24:30",1621888,11.29,324.6,2.91,0.861,6.097,99.79605,-1.219,0.098,29.08,0,109.4,13.63,-0.47,286.6
"2010-01-25 01:25:00",1621889,11.23,324.2,3.676,0.807,6.042,99.79605,-1.219,0.094,29.01,0,109.5,13.63,-0.47,286.2
"2010-01-25 01:25:30",1621890,11.82,322.8,3.455,0.762,6.038,99.79605,-1.219,0.118,28.92,0,109.4,13.63,-0.47,284.8
"2010-01-25 01:26:00",1621891,11.85,320.7,4.5,0.822,5.782,99.79605,-1.219,0.108,28.86,0,109.4,13.63,-0.47,282.7
"2010-01-25 01:26:30",1621892,12.96,323.8,2.906,0.888,5.843,99.79605,-1.219,0.105,29.04,0,109.4,13.63,-0.47,285.8
"2010-01-25 01:27:00",1621893,14.16,323,3.44,0.788,5.826,99.79605,-1.219,0.115,28.97,0,109.4,13.63,-0.47,285.0
"2010-01-25 01:27:30",1621894,13.73,322.7,3.609,0.809,5.81,99.79605,-1.219,0.124,29.13,0,109.4,13.63,-0.47,284.7
"2010-01-25 01:28:00",1621895,13.5,325.3,4.503,0.709,6.11,99.79605,-1.219,0.113,29.26,0,109.4,13.63,-0.47,287.3
"2010-01-25 01:28:30",1621896,13.08,324.9,4.41,0.858,6.267,99.79605,-1.219,0.11,29.04,0,109.4,13.63,-0.47,286.9
"2010-01-25 01:29:00",1621897,12.13,323.1,4.281,0.955,6.346,99.79605,-1.219,0.103,28.76,0,109.5,13.63,-0.47,285.1
"2010-01-25 01:29:30",1621898,12.47,324.7,4.507,0.94,6.343,99.79605,-1.219,0.113,28.7,0,109.4,13.63,-0.47,286.7
"2010-01-25 01:30:00",1621899,12.49,329.1,4.193,0.888,6.462,99.79605,-1.219,0.087,28.64,0,109.4,13.63,-0.47,291.1
"2010-01-25 01:30:30",1621900,12.03,329.7,4.072,0.769,6.399,99.79605,-1.219,0.092,28.59,0,109.4,13.63,-0.47,291.7
"2010-01-25 01:31:00",1621901,13.22,325.5,5.314,0.853,6.141,99.79605,-1.219,0.115,28.65,0,109.4,13.63,-0.47,287.5
"2010-01-25 01:31:30",1621902,12.68,323.5,4.494,0.831,6.126,99.79605,-1.219,0.115,28.68,0,109.4,13.63,-0.47,285.5
"2010-01-25 01:32:00",1621903,11.92,320.8,3.472,0.833,6.069,99.79605,-1.219,0.11,28.58,0,109.4,13.63,-0.47,282.8
"2010-01-25 01:32:30",1621904,12.12,324.4,3.024,0.846,5.929,99.79605,-1.219,0.095,28.68,0,109.5,13.63,-0.47,286.4
"2010-01-25 01:33:00",1621905,13.12,322.1,4.898,0.928,5.857,99.79605,-1.219,0.097,28.95,0,109.4,13.63,-0.47,284.1
"2010-01-25 01:33:30",1621906,13.84,317.7,3.76,0.912,6.114,99.79605,-1.219,0.114,28.84,0,109.4,13.62,-0.47,279.7
"2010-01-25 01:34:00",1621907,13.11,319.4,6.297,1.027,5.985,99.79605,-1.219,0.113,28.64,0,109.4,13.62,-0.47,281.4
"2010-01-25 01:34:30",1621908,11.36,325.2,3.054,0.837,6.036,99.79605,-1.219,0.11,28.83,0,109.4,13.62,-0.47,287.2
"2010-01-25 01:35:00",1621909,12.87,326.8,5.756,0.847,6.095,99.79605,-1.219,0.111,28.88,0,109.4,13.62,-0.47,288.8
"2010-01-25 01:35:30",1621910,13.02,323.7,3.972,0.867,6.044,99.79605,-1.219,0.116,28.66,0,109.4,13.62,-0.47,285.7
"2010-01-25 01:36:00",1621911,12.02,321,3.684,0.902,6.297,99.79605,-1.219,0.112,28.39,0,109.4,13.62,-0.47,283.0
"2010-01-25 01:36:30",1621912,13.17,324.3,2.373,0.851,5.925,99.79634,-1.219,0.095,28.35,0,109.4,13.62,-0.47,286.3
"2010-01-25 01:37:00",1621913,13.57,324.6,3.357,0.708,5.908,99.79605,-1.219,0.093,28.49,0,109.4,13.62,-0.47,286.6
"2010-01-25 01:37:30",1621914,13.61,326,4.326,0.81,6.141,99.79605,-1.219,0.124,28.6,0,109.4,13.62,-0.47,288.0
"2010-01-25 01:38:00",1621915,13.78,325.2,3.685,0.822,6.079,99.79605,-1.219,0.113,28.61,0,109.4,13.62,-0.47,287.2
"2010-01-25 01:38:30",1621916,13.61,326.3,3.627,0.809,6.144,99.79662,-1.218,0.114,28.87,0,109.4,13.63,-0.47,288.3
"2010-01-25 01:39:00",1621917,12.28,326,4.743,0.922,6.238,99.79634,-1.219,0.111,28.93,0,109.4,13.63,-0.47,288.0
"2010-01-25 01:39:30",1621918,10.98,332.7,3.117,1.021,6.149,99.79605,-1.219,0.129,28.6,0,109.4,13.63,-0.47,294.7
"2010-01-25 01:40:00",1621919,11.41,328.8,3.395,0.78,6.159,99.79605,-1.219,0.123,28.46,0,109.4,13.63,-0.47,290.8
"2010-01-25 01:40:30",1621920,12.6,328.8,3.278,0.9,6.006,99.79634,-1.219,0.115,28.53,0,109.4,13.63,-0.47,290.8
"2010-01-25 01:41:00",1621921,13.4,328.8,3.741,0.666,5.974,99.79605,-1.219,0.112,28.74,0,109.5,13.63,-0.47,290.8
"2010-01-25 01:41:30",1621922,12.37,323.8,4.137,0.982,6.331,99.7969,-1.217,0.114,28.67,0,109.4,13.63,-0.47,285.8
"2010-01-25 01:42:00",1621923,12.94,325.3,4.34,0.809,6.126,99.79605,-1.219,0.112,28.52,0,109.4,13.63,-0.47,287.3
"2010-01-25 01:42:30",1621924,14.06,322.4,3.303,0.831,6.155,99.79605,-1.219,0.112,28.47,0,109.4,13.63,-0.47,284.4
"2010-01-25 01:43:00",1621925,14.14,318.3,3.402,0.71,6.16,99.79719,-1.217,0.112,28.28,0,109.4,13.63,-0.47,280.3
"2010-01-25 01:43:30",1621926,13.9,321.8,3.862,0.834,5.892,99.79634,-1.219,0.137,28.26,0,109.4,13.63,-0.47,283.8
"2010-01-25 01:44:00",1621927,13.95,322.5,4.177,0.852,6.258,99.7969,-1.217,0.136,28.28,0,109.4,13.63,-0.47,284.5
"2010-01-25 01:44:30",1621928,13.6,316.9,2.627,0.805,6.141,99.79747,-1.216,0.113,28.21,0,109.4,13.63,-0.47,278.9
"2010-01-25 01:45:00",1621929,13.5,321.4,4.316,0.663,6.424,99.79775,-1.215,0.132,28.11,0,109.4,13.63,-0.47,283.4
"2010-01-25 01:45:30",1621930,13.67,321.2,4.124,0.905,6.326,99.79719,-1.217,0.114,28.09,0,109.4,13.63,-0.47,283.2